This is the latest recevied weather packets stored in our database for station/object KC3DGM. If no packets are shown the sender has not sent any weather packets the latest 10 day(s).
| Time | Temp. | Humidity | Pressure | Rain* | Wind** | Luminosity | Snow |
|---|---|---|---|---|---|---|---|
| 1777585753 | 10° C | 64% | 984.7 hPa | 0 mm | - | 77 W/m² | - |
| 1777585448 | 10.56° C | 63% | 984.7 hPa | 0 mm | - | 95 W/m² | - |
| 1777585144 | 10.56° C | 63% | 984.6 hPa | 0 mm | - | 80 W/m² | - |
| 1777584840 | 10.56° C | 64% | 984.6 hPa | 0 mm | - | 123 W/m² | - |
| 1777584537 | 10° C | 66% | 984.5 hPa | 0 mm | - | 182 W/m² | - |
| 1777584234 | 10° C | 67% | 984.8 hPa | 0 mm | - | 110 W/m² | - |
| 1777583933 | 10° C | 68% | 984.3 hPa | 0 mm | - | 134 W/m² | - |
| 1777583630 | 10° C | 69% | 984.7 hPa | 0 mm | - | 170 W/m² | - |
| 1777583328 | 8.89° C | 71% | 984.8 hPa | 0 mm | - | 140 W/m² | - |
| 1777583023 | 8.89° C | 71% | 984.5 hPa | 0 mm | - | 97 W/m² | - |
| 1777582720 | 8.89° C | 70% | 984.6 hPa | 0 mm | - | 92 W/m² | - |
| 1777582416 | 8.89° C | 72% | 984.4 hPa | 0 mm | - | 84 W/m² | - |
| 1777582115 | 8.89° C | 72% | 984.3 hPa | 0 mm | - | 98 W/m² | - |
| 1777581815 | 8.89° C | 72% | 984.6 hPa | 0 mm | - | 136 W/m² | - |
| 1777581514 | 8.89° C | 71% | 984.6 hPa | 0 mm | - | 87 W/m² | - |
| 1777581210 | 8.89° C | 72% | 984.6 hPa | 0 mm | - | 54 W/m² | - |
| 1777580904 | 8.89° C | 71% | 984.5 hPa | 0 mm | - | 53 W/m² | - |
| 1777580604 | 8.89° C | 73% | 984.6 hPa | 0 mm | - | 48 W/m² | - |
| 1777580301 | 8.89° C | 72% | 984.3 hPa | 0 mm | - | 23 W/m² | - |
| 1777579997 | 8.89° C | 71% | 984.8 hPa | 0 mm | - | 26 W/m² | - |
| 1777579692 | 9.44° C | 73% | 984.6 hPa | 0 mm | - | 69 W/m² | - |
| 1777579391 | 9.44° C | 71% | 984.6 hPa | 0 mm | - | 164 W/m² | - |
| 1777579086 | 8.89° C | 72% | 984.3 hPa | 0 mm | - | 241 W/m² | - |
| 1777578781 | 8.33° C | 74% | 984.6 hPa | 0 mm | - | 141 W/m² | - |
| 1777578476 | 8.33° C | 75% | 984.4 hPa | 0 mm | - | 105 W/m² | - |
* Rain latest hour (hover to see other rain measurements)
** Current wind speed in m/s (hover to see current wind gust speed)